Location: Township of Marena
(38.1747°N, 99.6798°W)
Time: 03:21:12
(UTC+00:00)

Cosmos 1110 Rocket - Pass Details

Date: 26 October 2020
Orbit: 753 x 780 km, 74.0° (Epoch: 24 November)

Event Time Altitude Azimuth Distance (km) Brightness Sun altitude
Rises 00:18:35 0° 200° (SSW) 3,233 7.7 -6.9°
Reaches altitude 10° 00:20:57 10° 201° (SSW) 2,307 6.9 -7.4°
Maximum altitude 00:26:12 79° 288° (WNW) 785 4.2 -8.4°
Drops below altitude 10° 00:31:26 10° 16° (NNE) 2,304 6.2 -9.4°
Sets 00:33:49 0° 18° (NNE) 3,229 7.0 -9.9°
